Time,TemperatureF,DewpointF,PressureIn,WindDirection,WindDirectionDegrees,WindSpeedMPH,WindSpeedGustMPH,Humidity,HourlyPrecipIn,Conditions,Clouds,dailyrainin,SolarRadiationWatts/m^2,SoftwareType,DateUTC
2013-01-10 00:02:00,15.0,12.0,-100.00,East,96,3.0,4.0,88,0.00,,,0.00,1.000000,,2013-01-10 06:02:00,
2013-01-10 00:32:00,15.0,13.0,-100.00,East,84,4.0,5.0,91,0.00,,,0.00,1.000000,,2013-01-10 06:32:00,
2013-01-10 00:42:00,15.0,13.0,-100.00,East,84,4.0,5.0,91,0.00,,,0.00,1.000000,,2013-01-10 06:42:00,
2013-01-10 00:52:00,15.0,13.0,-100.00,East,84,4.0,5.0,91,0.00,,,0.00,1.000000,,2013-01-10 06:52:00,
2013-01-10 01:02:00,15.0,13.0,-100.00,East,84,4.0,5.0,91,0.00,,,0.00,1.000000,,2013-01-10 07:02:00,
2013-01-10 02:33:00,20.0,16.0,-100.00,ESE,102,3.0,6.0,86,-99.99,,,0.00,1.000000,,2013-01-10 08:33:00,
2013-01-10 02:42:00,20.0,16.0,-100.00,ESE,102,3.0,6.0,86,-99.99,,,0.00,1.000000,,2013-01-10 08:42:00,
2013-01-10 02:53:00,20.0,16.0,-100.00,ESE,102,3.0,6.0,86,-99.99,,,0.00,1.000000,,2013-01-10 08:53:00,
2013-01-10 03:02:00,20.0,16.0,-100.00,ESE,102,3.0,6.0,86,-99.99,,,0.00,1.000000,,2013-01-10 09:02:00,
2013-01-10 03:32:00,20.0,15.0,-100.00,ESE,106,3.0,5.0,82,0.00,,,0.00,1.000000,,2013-01-10 09:32:00,
2013-01-10 03:43:00,20.0,15.0,-100.00,ESE,106,3.0,5.0,82,0.00,,,0.00,1.000000,,2013-01-10 09:43:00,
2013-01-10 03:52:00,20.0,15.0,-100.00,ESE,106,3.0,5.0,82,0.00,,,0.00,1.000000,,2013-01-10 09:52:00,
2013-01-10 04:03:00,20.0,15.0,-100.00,ESE,106,3.0,5.0,82,0.00,,,0.00,1.000000,,2013-01-10 10:03:00,
2013-01-10 04:33:00,27.0,20.0,-100.00,SSE,156,7.0,10.0,74,0.00,,,0.00,1.000000,,2013-01-10 10:33:00,
2013-01-10 04:42:00,27.0,20.0,-100.00,SSE,156,7.0,10.0,74,0.00,,,0.00,1.000000,,2013-01-10 10:42:00,
2013-01-10 04:52:00,27.0,20.0,-100.00,SSE,156,7.0,10.0,74,0.00,,,0.00,1.000000,,2013-01-10 10:52:00,
2013-01-10 05:02:00,27.0,20.0,-100.00,SSE,156,7.0,10.0,74,0.00,,,0.00,1.000000,,2013-01-10 11:02:00,
2013-01-10 05:33:00,27.0,20.0,-100.00,SSE,157,7.0,13.0,76,0.00,,,0.00,1.000000,,2013-01-10 11:33:00,
2013-01-10 05:43:00,27.0,20.0,-100.00,SSE,157,7.0,13.0,76,0.00,,,0.00,1.000000,,2013-01-10 11:43:00,
2013-01-10 05:53:00,27.0,20.0,-100.00,SSE,157,7.0,13.0,76,0.00,,,0.00,1.000000,,2013-01-10 11:53:00,
2013-01-10 06:03:00,27.0,20.0,-100.00,SSE,157,7.0,13.0,76,0.00,,,0.00,1.000000,,2013-01-10 12:03:00,
2013-01-10 08:33:00,29.0,20.0,-100.00,SSE,153,7.0,10.0,70,-99.99,,,0.00,3.000000,,2013-01-10 14:33:00,
2013-01-10 08:43:00,29.0,20.0,-100.00,SSE,153,7.0,10.0,70,-99.99,,,0.00,3.000000,,2013-01-10 14:43:00,
2013-01-10 08:53:00,29.0,20.0,-100.00,SSE,153,7.0,10.0,70,-99.99,,,0.00,3.000000,,2013-01-10 14:53:00,
2013-01-10 09:03:00,29.0,20.0,-100.00,SSE,153,7.0,10.0,70,-99.99,,,0.00,3.000000,,2013-01-10 15:03:00,
2013-01-10 09:33:00,31.0,21.0,-100.00,SSE,159,8.0,12.0,67,0.00,,,0.00,44.000000,,2013-01-10 15:33:00,
2013-01-10 09:43:00,31.0,21.0,-100.00,SSE,159,8.0,12.0,67,0.00,,,0.00,44.000000,,2013-01-10 15:43:00,
2013-01-10 09:53:00,31.0,21.0,-100.00,SSE,159,8.0,12.0,67,0.00,,,0.00,44.000000,,2013-01-10 15:53:00,
2013-01-10 10:02:00,31.0,21.0,-100.00,SSE,159,8.0,12.0,67,0.00,,,0.00,44.000000,,2013-01-10 16:02:00,
2013-01-10 10:33:00,36.0,23.0,-100.00,South,169,12.0,15.0,59,0.00,,,0.00,186.000000,,2013-01-10 16:33:00,
2013-01-10 10:43:00,36.0,23.0,-100.00,South,169,12.0,15.0,59,0.00,,,0.00,186.000000,,2013-01-10 16:43:00,
2013-01-10 10:53:00,36.0,23.0,-100.00,South,169,12.0,15.0,59,0.00,,,0.00,186.000000,,2013-01-10 16:53:00,
2013-01-10 11:03:00,36.0,23.0,-100.00,South,169,12.0,15.0,59,0.00,,,0.00,186.000000,,2013-01-10 17:03:00,
2013-01-10 11:33:00,38.0,23.0,-100.00,SSE,168,10.0,17.0,55,0.00,,,0.00,294.000000,,2013-01-10 17:33:00,
2013-01-10 11:43:00,38.0,23.0,-100.00,SSE,168,10.0,17.0,55,0.00,,,0.00,294.000000,,2013-01-10 17:43:00,
2013-01-10 11:53:00,38.0,23.0,-100.00,SSE,168,10.0,17.0,55,0.00,,,0.00,294.000000,,2013-01-10 17:53:00,
2013-01-10 12:03:00,38.0,23.0,-100.00,SSE,168,10.0,17.0,55,0.00,,,0.00,294.000000,,2013-01-10 18:03:00,
2013-01-10 12:33:00,40.0,22.0,-100.00,SSE,168,11.0,16.0,48,0.00,,,0.00,321.000000,,2013-01-10 18:33:00,
2013-01-10 12:43:00,40.0,22.0,-100.00,SSE,168,11.0,16.0,48,0.00,,,0.00,321.000000,,2013-01-10 18:43:00,
2013-01-10 12:53:00,40.0,22.0,-100.00,SSE,168,11.0,16.0,48,0.00,,,0.00,321.000000,,2013-01-10 18:53:00,
2013-01-10 13:03:00,40.0,22.0,-100.00,SSE,168,11.0,16.0,48,0.00,,,0.00,321.000000,,2013-01-10 19:03:00,
2013-01-10 13:33:00,40.0,21.0,-100.00,SSE,157,10.0,14.0,47,0.00,,,-99.99,260.000000,,2013-01-10 19:33:00,
2013-01-10 13:43:00,40.0,21.0,-100.00,SSE,157,10.0,14.0,47,0.00,,,-99.99,260.000000,,2013-01-10 19:43:00,
2013-01-10 13:53:00,40.0,21.0,-100.00,SSE,157,10.0,14.0,47,0.00,,,-99.99,260.000000,,2013-01-10 19:53:00,
2013-01-10 14:03:00,40.0,21.0,-100.00,SSE,157,10.0,14.0,47,0.00,,,-99.99,260.000000,,2013-01-10 20:03:00,
2013-01-10 14:33:00,41.0,21.0,-100.00,SSE,155,10.0,14.0,45,0.00,,,0.00,288.000000,,2013-01-10 20:33:00,
2013-01-10 14:43:00,41.0,21.0,-100.00,SSE,155,10.0,14.0,45,0.00,,,0.00,288.000000,,2013-01-10 20:43:00,
2013-01-10 14:53:00,41.0,21.0,-100.00,SSE,155,10.0,14.0,45,0.00,,,0.00,288.000000,,2013-01-10 20:53:00,
2013-01-10 15:03:00,41.0,21.0,-100.00,SSE,155,10.0,14.0,45,0.00,,,0.00,288.000000,,2013-01-10 21:03:00,
2013-01-10 15:33:00,40.0,19.0,-100.00,SE,143,6.0,13.0,43,0.00,,,0.00,131.000000,,2013-01-10 21:33:00,
2013-01-10 15:43:00,40.0,19.0,-100.00,SE,143,6.0,13.0,43,0.00,,,0.00,131.000000,,2013-01-10 21:43:00,
2013-01-10 15:53:00,40.0,19.0,-100.00,SE,143,6.0,13.0,43,0.00,,,0.00,131.000000,,2013-01-10 21:53:00,
2013-01-10 16:03:00,40.0,19.0,-100.00,SE,143,6.0,13.0,43,0.00,,,0.00,131.000000,,2013-01-10 22:03:00,
2013-01-10 16:44:00,38.0,23.0,-100.00,ESE,121,7.0,14.0,54,0.00,,,0.00,62.000000,,2013-01-10 22:44:00,
2013-01-10 17:02:00,38.0,23.0,-100.00,ESE,121,7.0,14.0,54,0.00,,,0.00,62.000000,,2013-01-10 23:02:00,
2013-01-10 17:33:00,37.0,21.0,-100.00,ESE,116,6.0,12.0,51,0.00,,,0.00,7.000000,,2013-01-10 23:33:00,
2013-01-10 17:43:00,37.0,21.0,-100.00,ESE,116,6.0,12.0,51,0.00,,,0.00,7.000000,,2013-01-10 23:43:00,
2013-01-10 17:53:00,37.0,21.0,-100.00,ESE,116,6.0,12.0,51,0.00,,,0.00,7.000000,,2013-01-10 23:53:00,
2013-01-10 18:03:00,37.0,21.0,-100.00,ESE,116,6.0,12.0,51,0.00,,,0.00,7.000000,,2013-01-11 00:03:00,
2013-01-10 18:33:00,36.0,23.0,-100.00,ESE,119,6.0,12.0,59,0.00,,,0.00,1.000000,,2013-01-11 00:33:00,
2013-01-10 18:43:00,36.0,23.0,-100.00,ESE,119,6.0,12.0,59,0.00,,,0.00,1.000000,,2013-01-11 00:43:00,
2013-01-10 18:53:00,36.0,23.0,-100.00,ESE,119,6.0,12.0,59,0.00,,,0.00,1.000000,,2013-01-11 00:53:00,
2013-01-10 19:03:00,36.0,23.0,-100.00,ESE,119,6.0,12.0,59,0.00,,,0.00,1.000000,,2013-01-11 01:03:00,
2013-01-10 19:34:00,33.0,27.0,-100.00,ESE,120,5.0,11.0,79,0.03,,,0.03,1.000000,,2013-01-11 01:34:00,
2013-01-10 19:43:00,33.0,27.0,-100.00,ESE,120,5.0,11.0,79,0.03,,,0.03,1.000000,,2013-01-11 01:43:00,
2013-01-10 19:53:00,33.0,27.0,-100.00,ESE,120,5.0,11.0,79,0.03,,,0.03,1.000000,,2013-01-11 01:53:00,
2013-01-10 20:03:00,33.0,27.0,-100.00,ESE,120,5.0,11.0,79,0.03,,,0.03,1.000000,,2013-01-11 02:03:00,
2013-01-10 20:33:00,33.0,30.0,-100.00,ESE,122,6.0,10.0,89,0.08,,,0.11,1.000000,,2013-01-11 02:33:00,
2013-01-10 20:43:00,33.0,30.0,-100.00,ESE,122,6.0,10.0,89,0.08,,,0.11,1.000000,,2013-01-11 02:43:00,
2013-01-10 20:54:00,33.0,30.0,-100.00,ESE,122,6.0,10.0,89,0.08,,,0.11,1.000000,,2013-01-11 02:54:00,
2013-01-10 21:02:00,33.0,30.0,-100.00,ESE,122,6.0,10.0,89,0.08,,,0.11,1.000000,,2013-01-11 03:02:00,
2013-01-10 21:33:00,32.0,31.0,-100.00,SE,128,8.0,13.0,95,0.04,,,0.15,1.000000,,2013-01-11 03:33:00,
2013-01-10 21:43:00,32.0,31.0,-100.00,SE,128,8.0,13.0,95,0.04,,,0.15,1.000000,,2013-01-11 03:43:00,
2013-01-10 21:53:00,32.0,31.0,-100.00,SE,128,8.0,13.0,95,0.04,,,0.15,1.000000,,2013-01-11 03:53:00,
2013-01-10 22:02:00,32.0,31.0,-100.00,SE,128,8.0,13.0,95,0.04,,,0.15,1.000000,,2013-01-11 04:02:00,
2013-01-10 22:33:00,33.0,32.0,-100.00,SE,139,8.0,14.0,96,0.03,,,0.18,1.000000,,2013-01-11 04:33:00,
2013-01-10 22:43:00,33.0,32.0,-100.00,SE,139,8.0,14.0,96,0.03,,,0.18,1.000000,,2013-01-11 04:43:00,
2013-01-10 22:53:00,33.0,32.0,-100.00,SE,139,8.0,14.0,96,0.03,,,0.18,1.000000,,2013-01-11 04:53:00,
2013-01-10 23:03:00,33.0,32.0,-100.00,SE,139,8.0,14.0,96,0.03,,,0.18,1.000000,,2013-01-11 05:03:00,
2013-01-10 23:33:00,33.0,32.0,-100.00,SSE,153,8.0,14.0,97,0.01,,,0.19,1.000000,,2013-01-11 05:33:00,
2013-01-10 23:43:00,33.0,32.0,-100.00,SSE,153,8.0,14.0,97,0.01,,,0.19,1.000000,,2013-01-11 05:43:00,
2013-01-10 23:53:00,33.0,32.0,-100.00,SSE,153,8.0,14.0,97,0.01,,,0.19,1.000000,,2013-01-11 05:53:00,